NOAA 16 [-]

Last updated on Fri Dec 29 2023 00:02:19 GMT+0000 (Greenwich Mean Time)

1 26536U 00055A 23361.86580663 .00000157 00000+0 10533-3 0 9996 2 26536 98.5577 44.1328 0010646 15.5411 344.6087 14.13508506496230
UTC large
Height (km)
Speed (km/s)
/
Latitude / Longitude
Inclination (degrees)
Orbital Period (minutes)
Azimuth
Elevation
Range (km)
Doppler Factor

Next 0 passes for location: London (51.5072 / 0.1276)

Sorry there are no passes over London.